Change the Weather History Date:

Saturday, August 31, 2013

  Actual Average (KAUS) Record (KAUS)
Temperature  
Mean Temperature 88 °F 82 °F  
Max Temperature 99 °F 94 °F 106 °F (2000)
Min Temperature 76 °F 70 °F 62 °F (2006)
Degree Days  
Heating Degree Days 0 0  
Month to date heating degree days 0  
Since 1 June heating degree days 0  
Since 1 July heating degree days 0  
Cooling Degree Days 22 17  
Month to date cooling degree days 580  
Year to date cooling degree days 2140  
Since 1 June cooling degree days 1633  
Growing Degree Days 38 (Base 50)    
Moisture  
Dew Point 74 °F    
Average Humidity 67    
Maximum Humidity 93    
Minimum Humidity 41    
Precipitation  
Precipitation 0.00 in 0.08 in 0.88 in (2001)
Month to date precipitation 2.03  
Year to date precipitation 23.10  
Snow  
Snow 0.00 in - - ()
Month to date snowfall  
Since 1 June snowfall  
Since 1 July snowfall  
Snow Depth -    
Sea Level Pressure  
Sea Level Pressure 29.88 in    
Wind  
Wind Speed 5 mph (South)    
Max Wind Speed 10 mph    
Max Gust Speed 16 mph    
Visibility 10 miles    
Events      
T = Trace of Precipitation, MM = Missing Value Source: NWS Daily Summary

Daily Weather History Graph

Daily Weather History Graph

Search for Another Location

Airport or City:

Trip Planner

Search our weather history database for the weather conditions in past years. The results will help you decide how hot, cold, wet, or windy it might be!

Date:

Astronomy

Aug. 31, 2013 Rise Set
Actual Time 7:04 AM CDT 7:51 PM CDT
Civil Twilight 6:40 AM CDT 8:15 PM CDT
Nautical Twilight 6:11 AM CDT 8:43 PM CDT
Astronomical Twilight 5:42 AM CDT 9:13 PM CDT
Moon 2:46 AM CDT 4:39 PM CDT
Length of Visible Light 13h 35m
Length of Day
12h 46m
Waning Crescent, 21% of the Moon is Illuminated
Aug 31
Waning Crescent
Sep 5
New
Sep 12
First Quarter
Sep 19
Full
Sep 26
Last Quarter

Hourly Weather History & Observations

Time (CDT) Temp. Heat Index Dew Point Humidity Pressure Visibility Wind Dir Wind Speed Gust Speed Precip Events Conditions
12:15 AM 83.3 °F 91.8 °F 76.3 °F 79% 29.90 in 10.0 mi South 9.2 mph - N/A   Drizzle
12:35 AM 82.8 °F 91.0 °F 76.3 °F 81% 29.90 in 10.0 mi South 6.9 mph - N/A   Clear
12:55 AM 82.4 °F 90.1 °F 76.1 °F 81% 29.90 in 10.0 mi South 5.8 mph - N/A   Clear
1:15 AM 81.7 °F 89.0 °F 76.3 °F 84% 29.90 in 10.0 mi South 4.6 mph - N/A   Clear
1:35 AM 81.3 °F 88.3 °F 76.3 °F 85% 29.90 in 10.0 mi South 3.5 mph - N/A   Clear
1:55 AM 80.8 °F 87.1 °F 76.1 °F 86% 29.90 in 10.0 mi Calm Calm - N/A   Clear
2:15 AM 80.2 °F 85.8 °F 76.1 °F 87% 29.90 in 10.0 mi SSW 3.5 mph - N/A   Clear
2:35 AM 80.1 °F 85.5 °F 76.1 °F 88% 29.91 in 10.0 mi South 3.5 mph - N/A   Clear
2:55 AM 79.9 °F - 76.1 °F 88% 29.91 in 10.0 mi South 4.6 mph - N/A   Clear
3:15 AM 79.9 °F - 76.1 °F 88% 29.91 in 10.0 mi SSW 3.5 mph - N/A   Clear
3:35 AM 79.3 °F - 75.7 °F 89% 29.91 in 10.0 mi South 3.5 mph - N/A   Clear
3:55 AM 79.0 °F - 75.6 °F 89% 29.91 in 10.0 mi Calm Calm - N/A   Clear
4:15 AM 78.8 °F - 75.6 °F 90% 29.91 in 10.0 mi Calm Calm - N/A   Clear
4:35 AM 78.8 °F - 75.7 °F 90% 29.91 in 10.0 mi Calm Calm - N/A   Clear
4:55 AM 77.4 °F - 75.2 °F 93% 29.91 in 7.0 mi Calm Calm - N/A   Clear
5:15 AM 77.0 °F - 74.7 °F 92% 29.91 in 7.0 mi Calm Calm - N/A   Clear
5:35 AM 77.0 °F - 74.5 °F 92% 29.91 in 7.0 mi Calm Calm - N/A   Clear
5:55 AM 77.0 °F - 74.7 °F 92% 29.91 in 7.0 mi South 3.5 mph - N/A   Clear
6:15 AM 77.0 °F - 74.7 °F 92% 29.92 in 7.0 mi South 3.5 mph - N/A   Clear
6:35 AM 77.0 °F - 74.7 °F 92% 29.92 in 7.0 mi South 3.5 mph - N/A   Clear
6:55 AM 76.6 °F - 74.5 °F 93% 29.92 in 7.0 mi South 4.6 mph - N/A   Clear
7:15 AM 76.5 °F - 74.3 °F 93% 29.93 in 5.0 mi South 4.6 mph - N/A   Clear
7:35 AM 77.0 °F - 74.7 °F 92% 29.93 in 5.0 mi South 3.5 mph - N/A   Clear
7:55 AM 77.5 °F - 75.2 °F 92% 29.93 in 5.0 mi South 3.5 mph - N/A   Clear
8:15 AM 78.8 °F - 75.7 °F 90% 29.94 in 7.0 mi South 3.5 mph - N/A   Clear
8:35 AM 80.2 °F 85.8 °F 76.1 °F 87% 29.94 in 10.0 mi SSW 4.6 mph - N/A   Clear
8:55 AM 81.9 °F 89.2 °F 76.3 °F 83% 29.94 in 10.0 mi WSW 3.5 mph - N/A   Clear
9:15 AM 83.3 °F 91.8 °F 76.1 °F 79% 29.94 in 10.0 mi SSW 6.9 mph - N/A   Clear
9:35 AM 84.6 °F 92.8 °F 75.2 °F 73% 29.94 in 10.0 mi SW 6.9 mph - N/A   Clear
9:55 AM 86.0 °F 93.8 °F 73.9 °F 67% 29.94 in 10.0 mi WSW 6.9 mph - N/A   Clear
10:15 AM 87.4 °F 95.8 °F 74.1 °F 64% 29.94 in 10.0 mi SSW 5.8 mph - N/A   Clear
10:35 AM 88.2 °F 96.9 °F 73.9 °F 63% 29.94 in 10.0 mi SSW 5.8 mph - N/A   Clear
10:55 AM 89.6 °F 97.7 °F 73.0 °F 58% 29.93 in 10.0 mi South 4.6 mph - N/A   Clear
11:15 AM 91.0 °F 99.8 °F 73.2 °F 56% 29.93 in 10.0 mi SSW 3.5 mph - N/A   Clear
11:35 AM 91.4 °F 100.1 °F 73.4 °F 55% 29.92 in 10.0 mi West 3.5 mph - N/A   Clear
11:55 AM 93.9 °F 103.4 °F 73.4 °F 51% 29.92 in 10.0 mi SSW 8.1 mph - N/A   Clear
12:15 PM 94.3 °F 102.9 °F 72.3 °F 49% 29.91 in 10.0 mi SSE 5.8 mph - N/A   Clear
12:35 PM 94.8 °F 103.4 °F 72.5 °F 48% 29.91 in 10.0 mi SSW 5.8 mph - N/A   Clear
12:55 PM 96.6 °F 105.4 °F 72.3 °F 45% 29.90 in 10.0 mi South 6.9 mph 16.1 mph N/A   Clear
1:15 PM 96.4 °F 105.0 °F 72.0 °F 45% 29.90 in 10.0 mi SSW 5.8 mph - N/A   Clear
1:35 PM 97.9 °F 107.6 °F 72.7 °F 44% 29.89 in 10.0 mi South 6.9 mph - N/A   Clear
1:55 PM 97.5 °F 107.5 °F 72.7 °F 45% 29.88 in 10.0 mi SSE 5.8 mph - N/A   Clear
2:15 PM 98.2 °F 108.4 °F 73.2 °F 44% 29.87 in 10.0 mi South 5.8 mph 9.2 mph N/A   Scattered Clouds
2:35 PM 98.2 °F 108.4 °F 73.0 °F 44% 29.86 in 10.0 mi South 10.4 mph - N/A   Scattered Clouds
2:55 PM 97.9 °F 109.1 °F 73.6 °F 46% 29.86 in 10.0 mi South 8.1 mph - N/A   Clear
3:15 PM 97.3 °F 107.1 °F 72.9 °F 45% 29.85 in 10.0 mi South 10.4 mph - N/A   Scattered Clouds
3:35 PM 98.2 °F 109.2 °F 73.4 °F 45% 29.84 in 10.0 mi South 8.1 mph - N/A   Clear
3:55 PM 99.1 °F 109.7 °F 73.2 °F 43% 29.83 in 10.0 mi South 6.9 mph - N/A   Clear
4:15 PM 99.7 °F 109.3 °F 72.3 °F 41% 29.83 in 10.0 mi Calm Calm - N/A   Clear
4:35 PM 99.0 °F 108.5 °F 72.5 °F 42% 29.82 in 10.0 mi SSE 6.9 mph - N/A   Clear
4:55 PM 99.5 °F 109.7 °F 72.5 °F 42% 29.82 in 10.0 mi South 6.9 mph - N/A   Clear
5:15 PM 99.1 °F 108.9 °F 72.7 °F 42% 29.82 in 10.0 mi SSW 5.8 mph - N/A   Clear
5:35 PM 99.1 °F 108.9 °F 72.5 °F 42% 29.81 in 10.0 mi SSW 4.6 mph - N/A   Clear
5:55 PM 99.1 °F 108.9 °F 72.5 °F 42% 29.81 in 10.0 mi South 6.9 mph 16.1 mph N/A   Scattered Clouds
6:15 PM 99.0 °F 107.7 °F 71.6 °F 41% 29.81 in 10.0 mi SSE 8.1 mph - N/A   Clear
6:35 PM 97.9 °F 107.6 °F 72.3 °F 44% 29.81 in 10.0 mi SSE 8.1 mph - N/A   Clear
6:55 PM 97.2 °F 106.6 °F 72.3 °F 45% 29.82 in 10.0 mi South 8.1 mph - N/A   Clear
7:15 PM 96.1 °F 105.6 °F 72.9 °F 47% 29.81 in 10.0 mi South 9.2 mph - N/A   Clear
7:35 PM 95.0 °F 104.5 °F 72.9 °F 49% 29.81 in 10.0 mi South 6.9 mph - N/A   Clear
7:55 PM 94.1 °F 103.8 °F 73.4 °F 51% 29.82 in 10.0 mi South 4.6 mph - N/A   Clear
8:15 PM 92.3 °F 101.5 °F 73.4 °F 54% 29.82 in 10.0 mi South 5.8 mph - N/A   Clear
8:35 PM 90.5 °F 99.7 °F 73.8 °F 58% 29.83 in 10.0 mi South 5.8 mph - N/A   Clear
8:55 PM 89.4 °F 98.3 °F 73.9 °F 60% 29.83 in 10.0 mi South 4.6 mph - N/A   Clear
9:15 PM 89.8 °F 99.7 °F 74.5 °F 61% 29.84 in 10.0 mi SSE 8.1 mph - N/A   Clear
9:35 PM 89.1 °F 99.6 °F 75.4 °F 64% 29.85 in 10.0 mi South 8.1 mph - N/A   Clear
9:55 PM 88.0 °F 99.1 °F 76.1 °F 68% 29.85 in 10.0 mi South 8.1 mph - N/A   Clear
10:15 PM 87.3 °F 98.2 °F 76.3 °F 70% 29.85 in 10.0 mi South 6.9 mph - N/A   Clear
10:35 PM 86.4 °F 96.0 °F 75.7 °F 70% 29.86 in 10.0 mi South 9.2 mph - N/A   Clear
10:55 PM 85.6 °F 95.0 °F 75.6 °F 72% 29.86 in 10.0 mi South 9.2 mph - N/A   Clear
11:15 PM 85.1 °F 94.1 °F 75.6 °F 73% 29.85 in 10.0 mi South 8.1 mph - N/A   Clear
11:35 PM 84.2 °F 92.6 °F 75.6 °F 75% 29.86 in 10.0 mi South 6.9 mph - N/A   Clear
11:55 PM 83.5 °F 91.6 °F 75.7 °F 77% 29.85 in 10.0 mi South 9.2 mph - N/A   Clear